{"data":{"norad_id":59168,"epoch":"2026-05-25T01:44:47.784192Z","epoch_age_seconds":68479,"freshness":"FRESH","line1":"1 59168U 24044S   26145.07277528  .00000359  00000+0  22573-4 0  9998","line2":"2 59168  43.0036  35.9720 0001120 273.6519  86.4204 15.27582184125274","mean_motion":15.27582184,"eccentricity":0.000112,"inclination_deg":43.0036,"raan_deg":35.972,"arg_perigee_deg":273.6519,"mean_anomaly_deg":86.4204,"bstar":2.2573e-5,"rev_number":12527,"period_min":94.266613939509,"perigee_km":482.27410425544,"apogee_km":483.81100847607,"semimajor_km":6861.1795563658,"source":"CELESTRAK","updated_at":"2026-05-25T13:38:18.835811Z"}}